Wheeling, WV

11:53 PM EDT on April 19, 2018 (GMT -0400)
Wheeling-Ohio County

Weather History for KHLG - January, 2014

Change the Weather History Date:

Saturday, January 18, 2014

  Actual Average Record
Temperature  
Mean Temperature 14 °F 29 °F  
Max Temperature 19 °F 36 °F 65 °F (1929)
Min Temperature 9 °F 22 °F -10 °F (1948)
Degree Days  
Heating Degree Days 51 36  
Month to date heating degree days 632 648  
Since 1 July heating degree days 2770 2773  
Cooling Degree Days 0    
Month to date cooling degree days 0  
Year to date cooling degree days 0  
Moisture  
Dew Point 8 °F    
Average Humidity 73    
Maximum Humidity 84    
Minimum Humidity 61    
Precipitation  
Precipitation 0.02 in 0.08 in 0.95 in (1910)
Month to date precipitation 1.37 1.86  
Year to date precipitation 1.86  
Sea Level Pressure  
Sea Level Pressure 29.96 in    
Wind  
Wind Speed 8 mph (SW)    
Max Wind Speed 20 mph    
Max Gust Speed 26 mph    
Visibility 8 miles    
Events Snow    
T = Trace of Precipitation, MM = Missing Value Source: NWS Daily Summary

Daily Weather History Graph

Daily Weather History Graph

Search for Another Location

Airport or City:

Astronomy

Jan. 18, 2014 Rise Set
Actual Time 7:41 AM EST 5:24 PM EST
Civil Twilight 7:12 AM EST 5:54 PM EST
Nautical Twilight 6:38 AM EST 6:27 PM EST
Astronomical Twilight 6:06 AM EST 7:00 PM EST
Moon 8:05 PM EST (1/18) 8:40 AM EST (1/18)
Length of Visible Light 10h 42m
Length of Day
9h 43m
Waning Gibbous, 94% of the Moon is Illuminated
Jan 18
Waning Gibbous
Jan 24
Last Quarter
Jan 30
New
Feb 6
First Quarter
Feb 14
Full

Hourly Weather History & Observations

Time (EST) Temp. Windchill Dew Point Humidity Pressure Visibility Wind Dir Wind Speed Gust Speed Precip Events Conditions
12:53 AM 17.1 °F 5.0 °F 7.0 °F 65% 29.99 in 10.0 mi SW 10.4 mph 21.9 mph N/A   Overcast
1:25 AM 15.8 °F 2.7 °F 10.4 °F 79% 29.94 in 2.5 mi West 11.5 mph 19.6 mph 0.00 in Snow Light Snow
1:36 AM 15.8 °F 3.4 °F 10.4 °F 79% 29.94 in 1.8 mi West 10.4 mph 19.6 mph 0.00 in Snow Light Snow
1:42 AM 15.8 °F 3.4 °F 10.4 °F 79% 29.94 in 3.0 mi West 10.4 mph 19.6 mph 0.00 in Snow Light Snow
1:53 AM 15.1 °F 0.5 °F 7.0 °F 70% 30.00 in 9.0 mi West 13.8 mph 23.0 mph 0.00 in   Overcast
2:53 AM 15.1 °F 3.3 °F 6.1 °F 68% 29.99 in 10.0 mi WSW 9.2 mph - N/A   Overcast
3:53 AM 14.0 °F 2.9 °F 7.0 °F 74% 29.99 in 10.0 mi West 8.1 mph - N/A   Overcast
4:24 AM 12.2 °F -3.7 °F 5.0 °F 73% 29.93 in 9.0 mi West 15.0 mph 21.9 mph 0.00 in   Overcast
4:53 AM 12.0 °F -1.3 °F 3.9 °F 70% 30.00 in 10.0 mi West 10.4 mph - 0.00 in   Scattered Clouds
5:18 AM 12.2 °F -1.0 °F 3.2 °F 67% 29.94 in 10.0 mi West 10.4 mph - N/A   Mostly Cloudy
5:48 AM 10.4 °F -5.4 °F 1.4 °F 67% 29.95 in 10.0 mi West 13.8 mph 20.7 mph N/A   Scattered Clouds
5:53 AM 10.9 °F -4.7 °F 1.9 °F 67% 30.01 in 10.0 mi West 13.8 mph 20.7 mph N/A   Partly Cloudy
6:53 AM 10.0 °F -4.5 °F 1.9 °F 70% 30.02 in 10.0 mi West 11.5 mph 20.7 mph N/A   Clear
7:53 AM 9.0 °F -5.1 °F 1.9 °F 73% 30.04 in 10.0 mi West 10.4 mph - N/A   Clear
8:53 AM 10.0 °F -3.7 °F 3.0 °F 73% 30.04 in 10.0 mi WSW 10.4 mph 17.3 mph N/A   Clear
9:53 AM 10.9 °F -1.8 °F 3.9 °F 73% 30.06 in 10.0 mi West 9.2 mph - N/A   Partly Cloudy
10:29 AM 12.2 °F -2.5 °F 5.0 °F 73% 30.00 in 10.0 mi West 12.7 mph - N/A   Mostly Cloudy
10:53 AM 14.0 °F -0.2 °F 5.0 °F 67% 30.06 in 10.0 mi WSW 12.7 mph - N/A   Overcast
11:53 AM 16.0 °F 5.3 °F 6.1 °F 65% 30.05 in 10.0 mi WSW 8.1 mph 20.7 mph N/A   Overcast
12:53 PM 16.0 °F 3.6 °F 6.1 °F 65% 30.04 in 9.0 mi West 10.4 mph - 0.00 in Snow Light Snow
1:53 PM 17.1 °F 7.6 °F 7.0 °F 65% 30.02 in 10.0 mi SW 6.9 mph - 0.00 in   Overcast
2:53 PM 17.1 °F 8.7 °F 8.1 °F 68% 30.01 in 10.0 mi SW 5.8 mph - N/A   Overcast
3:28 PM 17.6 °F 10.7 °F 8.6 °F 68% 29.94 in 10.0 mi WSW 4.6 mph - N/A   Overcast
3:53 PM 18.0 °F 7.7 °F 8.1 °F 65% 30.01 in 10.0 mi SW 8.1 mph - N/A   Overcast
4:11 PM 17.6 °F 9.3 °F 8.6 °F 68% 29.93 in 9.0 mi SW 5.8 mph - 0.00 in   Overcast
4:53 PM 17.1 °F 8.7 °F 10.0 °F 74% 30.01 in 8.0 mi South 5.8 mph - 0.00 in   Overcast
5:00 PM 17.6 °F 9.3 °F 10.4 °F 73% 29.93 in 10.0 mi South 5.8 mph - N/A   Overcast
5:46 PM 17.6 °F 8.2 °F 8.6 °F 68% 29.93 in 10.0 mi South 6.9 mph - N/A   Overcast
5:53 PM 16.0 °F 5.3 °F 8.1 °F 71% 30.00 in 10.0 mi South 8.1 mph - N/A   Mostly Cloudy
6:53 PM 16.0 °F 8.8 °F 9.0 °F 74% 29.99 in 10.0 mi South 4.6 mph - N/A   Clear
7:53 PM 16.0 °F 10.4 °F 10.0 °F 77% 29.99 in 10.0 mi SSE 3.5 mph - N/A   Mostly Cloudy
8:53 PM 17.1 °F 8.7 °F 12.0 °F 81% 29.96 in 10.0 mi SSE 5.8 mph - N/A   Overcast
9:34 PM 17.6 °F 10.7 °F 12.2 °F 79% 29.87 in 2.5 mi SE 4.6 mph - 0.00 in Snow Light Snow
9:53 PM 17.1 °F 8.7 °F 12.9 °F 84% 29.94 in 2.5 mi SSE 5.8 mph - 0.00 in Snow Light Snow
10:19 PM 17.6 °F 10.7 °F 14.0 °F 86% 29.86 in 1.5 mi South 4.6 mph - 0.00 in Snow Light Snow
10:40 PM 17.6 °F 10.7 °F 14.0 °F 86% 29.85 in 1.0 mi SSE 4.6 mph - 0.00 in Snow Light Snow
10:53 PM 17.1 °F 8.7 °F 14.0 °F 88% 29.92 in 1.0 mi SE 5.8 mph - 0.01 in Snow Light Snow
11:21 PM 17.6 °F 9.3 °F 14.0 °F 86% 29.83 in 1.2 mi SE 5.8 mph - 0.01 in Snow Light Snow
11:31 PM 17.6 °F 10.7 °F 15.8 °F 93% 29.83 in 3.0 mi SE 4.6 mph - 0.01 in Snow Light Snow
11:43 PM 17.6 °F 9.3 °F 14.0 °F 86% 29.82 in 1.8 mi SE 5.8 mph - 0.01 in Snow Light Snow
11:53 PM 17.1 °F 10.0 °F 15.1 °F 92% 29.88 in 1.8 mi SSE 4.6 mph - 0.01 in Snow Light Snow